#Datum;Uhrzeit;WR;Pac;DaySum;Status;WR;Pac;DaySum;Status;Pdc1;Udc;Temp;WR;Pac;DaySum;Status;Pdc1;Udc;Temp;WR;Pac;DaySum;Status;Pdc1;Udc;Temp;WR;Pac;DaySum;Status;Pdc1;Pdc2;Udc1;Udc2;Temp;WR;Pac;DaySum;Status;Pdc1;Pdc2;Udc1;Udc2;Temp;WR;Pac;DaySum;Status;Pdc1;Udc;Temp;WR;Pac;DaySum;Status;Pdc1;Udc;Temp;WR;Pac;DaySum;Status;Pdc1;Udc;Temp
29.02.20;23:55:00;1;273;15962;0;2;0;10532;0;0;0;0;3;0;7235;0;0;0;0;4;0;10508;0;0;0;0;5;0;24310;0;0;0;0;0;0;6;0;18341;0;0;0;0;0;0;7;0;16742;0;0;0;0;8;0;16246;0;0;0;0;9;0;8598;0;0;0;0
29.02.20;23:50:00;1;216;15940;0;2;0;10532;0;0;0;0;3;0;7235;0;0;0;0;4;0;10508;0;0;0;0;5;0;24310;0;0;0;0;0;0;6;0;18341;0;0;0;0;0;0;7;0;16742;0;0;0;0;8;0;16246;0;0;0;0;9;0;8598;0;0;0;0
29.02.20;23:45:00;1;216;15922;0;2;0;10532;0;0;0;0;3;0;7235;0;0;0;0;4;0;10508;0;0;0;0;5;0;24310;0;0;0;0;0;0;6;0;18341;0;0;0;0;0;0;7;0;16742;0;0;0;0;8;0;16246;0;0;0;0;9;0;8598;0;0;0;0
29.02.20;23:40:00;1;255;15903;0;2;0;10532;0;0;0;0;3;0;7235;0;0;0;0;4;0;10508;0;0;0;0;5;0;24310;0;0;0;0;0;0;6;0;18341;0;0;0;0;0;0;7;0;16742;0;0;0;0;8;0;16246;0;0;0;0;9;0;8598;0;0;0;0
29.02.20;23:35:00;1;309;15882;0;2;0;10532;0;0;0;0;3;0;7235;0;0;0;0;4;0;10508;0;0;0;0;5;0;24310;0;0;0;0;0;0;6;0;18341;0;0;0;0;0;0;7;0;16742;0;0;0;0;8;0;16246;0;0;0;0;9;0;8598;0;0;0;0
29.02.20;23:30:00;1;417;15855;0;2;0;10532;0;0;0;0;3;0;7235;0;0;0;0;4;0;10508;0;0;0;0;5;0;24310;0;0;0;0;0;0;6;0;18341;0;0;0;0;0;0;7;0;16742;0;0;0;0;8;0;16246;0;0;0;0;9;0;8598;0;0;0;0
29.02.20;23:25:00;1;493;15820;0;2;0;10532;0;0;0;0;3;0;7235;0;0;0;0;4;0;10508;0;0;0;0;5;0;24310;0;0;0;0;0;0;6;0;18341;0;0;0;0;0;0;7;0;16742;0;0;0;0;8;0;16246;0;0;0;0;9;0;8598;0;0;0;0
29.02.20;23:20:00;1;451;15779;0;2;0;10532;0;0;0;0;3;0;7235;0;0;0;0;4;0;10508;0;0;0;0;5;0;24310;0;0;0;0;0;0;6;0;18341;0;0;0;0;0;0;7;0;16742;0;0;0;0;8;0;16246;0;0;0;0;9;0;8598;0;0;0;0
29.02.20;23:15:00;1;420;15742;0;2;0;10532;0;0;0;0;3;0;7235;0;0;0;0;4;0;10508;0;0;0;0;5;0;24310;0;0;0;0;0;0;6;0;18341;0;0;0;0;0;0;7;0;16742;0;0;0;0;8;0;16246;0;0;0;0;9;0;8598;0;0;0;0
29.02.20;23:10:00;1;429;15707;0;2;0;10532;0;0;0;0;3;0;7235;0;0;0;0;4;0;10508;0;0;0;0;5;0;24310;0;0;0;0;0;0;6;0;18341;0;0;0;0;0;0;7;0;16742;0;0;0;0;8;0;16246;0;0;0;0;9;0;8598;0;0;0;0
29.02.20;23:05:00;1;430;15671;0;2;0;10532;0;0;0;0;3;0;7235;0;0;0;0;4;0;10508;0;0;0;0;5;0;24310;0;0;0;0;0;0;6;0;18341;0;0;0;0;0;0;7;0;16742;0;0;0;0;8;0;16246;0;0;0;0;9;0;8598;0;0;0;0
29.02.20;23:00:00;1;428;15635;0;2;0;10532;0;0;0;0;3;0;7235;0;0;0;0;4;0;10508;0;0;0;0;5;0;24310;0;0;0;0;0;0;6;0;18341;0;0;0;0;0;0;7;0;16742;0;0;0;0;8;0;16246;0;0;0;0;9;0;8598;0;0;0;0
29.02.20;22:55:00;1;463;15599;0;2;0;10532;0;0;0;0;3;0;7235;0;0;0;0;4;0;10508;0;0;0;0;5;0;24310;2;0;0;0;0;0;6;0;18341;2;0;0;0;0;0;7;0;16742;0;0;0;0;8;0;16246;0;0;0;0;9;0;8598;0;0;0;0
29.02.20;22:50:00;1;450;15560;0;2;0;10532;0;0;0;0;3;0;7235;0;0;0;0;4;0;10508;0;0;0;0;5;0;24310;2;0;0;0;0;0;6;0;18341;2;0;0;0;0;0;7;0;16742;0;0;0;0;8;0;16246;0;0;0;0;9;0;8598;0;0;0;0
29.02.20;22:45:00;1;368;15526;0;2;0;10532;0;0;0;0;3;0;7235;0;0;0;0;4;0;10508;0;0;0;0;5;0;24310;2;0;0;0;0;0;6;0;18341;2;0;0;0;0;0;7;0;16742;0;0;0;0;8;0;16246;0;0;0;0;9;0;8598;0;0;0;0
29.02.20;22:40:00;1;389;15494;0;2;0;10532;0;0;0;0;3;0;7235;0;0;0;0;4;0;10508;0;0;0;0;5;0;24310;2;0;0;0;0;0;6;0;18341;2;0;0;0;0;0;7;0;16742;0;0;0;0;8;0;16246;0;0;0;0;9;0;8598;0;0;0;0
29.02.20;22:35:00;1;972;15462;0;2;0;10532;0;0;0;0;3;0;7235;0;0;0;0;4;0;10508;0;0;0;0;5;0;24310;2;0;0;0;0;0;6;0;18341;2;0;0;0;0;0;7;0;16742;0;0;0;0;8;0;16246;0;0;0;0;9;0;8598;0;0;0;0
29.02.20;22:30:00;1;385;15404;0;2;0;10532;0;0;0;0;3;0;7235;0;0;0;0;4;0;10508;0;0;0;0;5;0;24310;2;0;0;0;0;0;6;0;18341;2;0;0;0;0;0;7;0;16742;0;0;0;0;8;0;16246;0;0;0;0;9;0;8598;0;0;0;0
29.02.20;22:25:00;1;395;15372;0;2;0;10532;0;0;0;0;3;0;7235;0;0;0;0;4;0;10508;0;0;0;0;5;0;24310;2;0;0;0;0;0;6;0;18341;2;0;0;0;0;0;7;0;16742;0;0;0;0;8;0;16246;0;0;0;0;9;0;8598;0;0;0;0
29.02.20;22:20:00;1;356;15339;0;2;0;10532;0;0;0;0;3;0;7235;0;0;0;0;4;0;10508;0;0;0;0;5;0;24310;2;0;0;0;0;0;6;0;18341;2;0;0;0;0;0;7;0;16742;0;0;0;0;8;0;16246;0;0;0;0;9;0;8598;0;0;0;0
29.02.20;22:15:00;1;351;15309;0;2;0;10532;0;0;0;0;3;0;7235;0;0;0;0;4;0;10508;0;0;0;0;5;0;24310;2;0;0;0;0;0;6;0;18341;2;0;0;0;0;0;7;0;16742;0;0;0;0;8;0;16246;0;0;0;0;9;0;8598;0;0;0;0
29.02.20;22:10:00;1;361;15279;0;2;0;10532;0;0;0;0;3;0;7235;0;0;0;0;4;0;10508;0;0;0;0;5;0;24310;2;0;0;0;0;0;6;0;18341;2;0;0;0;0;0;7;0;16742;0;0;0;0;8;0;16246;0;0;0;0;9;0;8598;0;0;0;0
29.02.20;22:05:00;1;365;15249;0;2;0;10532;0;0;0;0;3;0;7235;0;0;0;0;4;0;10508;0;0;0;0;5;0;24310;2;0;0;0;0;0;6;0;18341;2;0;0;0;0;0;7;0;16742;0;0;0;0;8;0;16246;0;0;0;0;9;0;8598;0;0;0;0
29.02.20;22:00:00;1;369;15219;0;2;0;10532;0;0;0;0;3;0;7235;0;0;0;0;4;0;10508;0;0;0;0;5;0;24310;2;0;0;0;0;0;6;0;18341;2;0;0;0;0;0;7;0;16742;0;0;0;0;8;0;16246;0;0;0;0;9;0;8598;0;0;0;0
29.02.20;21:55:00;1;452;15186;0;2;0;10532;0;0;0;0;3;0;7235;0;0;0;0;4;0;10508;0;0;0;0;5;0;24310;2;0;0;0;0;0;6;0;18341;2;0;0;0;0;0;7;0;16742;0;0;0;0;8;0;16246;0;0;0;0;9;0;8598;0;0;0;0
29.02.20;21:50:00;1;414;15148;0;2;0;10532;0;0;0;0;3;0;7235;0;0;0;0;4;0;10508;0;0;0;0;5;0;24310;2;0;0;0;0;0;6;0;18341;2;0;0;0;0;0;7;0;16742;0;0;0;0;8;0;16246;0;0;0;0;9;0;8598;0;0;0;0
29.02.20;21:45:00;1;411;15114;0;2;0;10532;0;0;0;0;3;0;7235;0;0;0;0;4;0;10508;0;0;0;0;5;0;24310;2;0;0;0;0;0;6;0;18341;2;0;0;0;0;0;7;0;16742;0;0;0;0;8;0;16246;0;0;0;0;9;0;8598;0;0;0;0
29.02.20;21:40:00;1;368;15079;0;2;0;10532;0;0;0;0;3;0;7235;0;0;0;0;4;0;10508;0;0;0;0;5;0;24310;2;0;0;0;0;0;6;0;18341;2;0;0;0;0;0;7;0;16742;0;0;0;0;8;0;16246;0;0;0;0;9;0;8598;0;0;0;0
29.02.20;21:35:00;1;370;15048;0;2;0;10532;0;0;0;0;3;0;7235;0;0;0;0;4;0;10508;0;0;0;0;5;0;24310;2;0;0;0;0;0;6;0;18341;2;0;0;0;0;0;7;0;16742;0;0;0;0;8;0;16246;0;0;0;0;9;0;8598;0;0;0;0
29.02.20;21:30:00;1;379;15018;0;2;0;10532;0;0;0;0;3;0;7235;0;0;0;0;4;0;10508;0;0;0;0;5;0;24310;2;0;0;0;0;0;6;0;18341;2;0;0;0;0;0;7;0;16742;0;0;0;0;8;0;16246;0;0;0;0;9;0;8598;0;0;0;0
29.02.20;21:25:00;1;447;14985;0;2;0;10532;0;0;0;0;3;0;7235;0;0;0;0;4;0;10508;0;0;0;0;5;0;24310;2;0;0;0;0;0;6;0;18341;2;0;0;0;0;0;7;0;16742;0;0;0;0;8;0;16246;0;0;0;0;9;0;8598;0;0;0;0
29.02.20;21:20:00;1;364;14927;0;2;0;10532;0;0;0;0;3;0;7235;0;0;0;0;4;0;10508;0;0;0;0;5;0;24310;2;0;0;0;0;0;6;0;18341;2;0;0;0;0;0;7;0;16742;0;0;0;0;8;0;16246;0;0;0;0;9;0;8598;0;0;0;0
29.02.20;21:15:00;1;411;14896;0;2;0;10532;0;0;0;0;3;0;7235;0;0;0;0;4;0;10508;0;0;0;0;5;0;24310;2;0;0;0;0;0;6;0;18341;2;0;0;0;0;0;7;0;16742;0;0;0;0;8;0;16246;0;0;0;0;9;0;8598;0;0;0;0
29.02.20;21:10:00;1;444;14862;0;2;0;10532;0;0;0;0;3;0;7235;0;0;0;0;4;0;10508;0;0;0;0;5;0;24310;2;0;0;0;0;0;6;0;18341;2;0;0;0;0;0;7;0;16742;0;0;0;0;8;0;16246;0;0;0;0;9;0;8598;0;0;0;0
29.02.20;21:05:00;1;480;14824;0;2;0;10532;0;0;0;0;3;0;7235;0;0;0;0;4;0;10508;0;0;0;0;5;0;24310;2;0;0;0;0;0;6;0;18341;2;0;0;0;0;0;7;0;16742;0;0;0;0;8;0;16246;0;0;0;0;9;0;8598;0;0;0;0
29.02.20;21:00:00;1;493;14784;0;2;0;10532;0;0;0;0;3;0;7235;0;0;0;0;4;0;10508;0;0;0;0;5;0;24310;2;0;0;0;0;0;6;0;18341;2;0;0;0;0;0;7;0;16742;0;0;0;0;8;0;16246;0;0;0;0;9;0;8598;0;0;0;0
29.02.20;20:55:00;1;502;14742;0;2;0;10532;0;0;0;0;3;0;7235;0;0;0;0;4;0;10508;0;0;0;0;5;0;24310;2;0;0;0;0;0;6;0;18341;2;0;0;0;0;0;7;0;16742;0;0;0;0;8;0;16246;0;0;0;0;9;0;8598;0;0;0;0
29.02.20;20:50:00;1;408;14700;0;2;0;10532;0;0;0;0;3;0;7235;0;0;0;0;4;0;10508;0;0;0;0;5;0;24310;2;0;0;0;0;0;6;0;18341;2;0;0;0;0;0;7;0;16742;0;0;0;0;8;0;16246;0;0;0;0;9;0;8598;0;0;0;0
29.02.20;20:45:00;1;370;14667;0;2;0;10532;0;0;0;0;3;0;7235;0;0;0;0;4;0;10508;0;0;0;0;5;0;24310;2;0;0;0;0;0;6;0;18341;2;0;0;0;0;0;7;0;16742;0;0;0;0;8;0;16246;0;0;0;0;9;0;8598;0;0;0;0
29.02.20;20:40:00;1;263;14637;0;2;0;10532;0;0;0;0;3;0;7235;0;0;0;0;4;0;10508;0;0;0;0;5;0;24310;2;0;0;0;0;0;6;0;18341;2;0;0;0;0;0;7;0;16742;0;0;0;0;8;0;16246;0;0;0;0;9;0;8598;0;0;0;0
29.02.20;20:35:00;1;226;14615;0;2;0;10532;0;0;0;0;3;0;7235;0;0;0;0;4;0;10508;0;0;0;0;5;0;24310;2;0;0;0;0;0;6;0;18341;2;0;0;0;0;0;7;0;16742;0;0;0;0;8;0;16246;0;0;0;0;9;0;8598;0;0;0;0
29.02.20;20:30:00;1;240;14596;0;2;0;10532;0;0;0;0;3;0;7235;0;0;0;0;4;0;10508;0;0;0;0;5;0;24310;2;0;0;0;0;0;6;0;18341;2;0;0;0;0;0;7;0;16742;0;0;0;0;8;0;16246;0;0;0;0;9;0;8598;0;0;0;0
29.02.20;20:25:00;1;278;14575;0;2;0;10532;0;0;0;0;3;0;7235;0;0;0;0;4;0;10508;0;0;0;0;5;0;24310;2;0;0;0;0;0;6;0;18341;2;0;0;0;0;0;7;0;16742;0;0;0;0;8;0;16246;0;0;0;0;9;0;8598;0;0;0;0
29.02.20;20:20:00;1;237;14553;0;2;0;10532;0;0;0;0;3;0;7235;0;0;0;0;4;0;10508;0;0;0;0;5;0;24310;2;0;0;0;0;0;6;0;18341;2;0;0;0;0;0;7;0;16742;0;0;0;0;8;0;16246;0;0;0;0;9;0;8598;0;0;0;0
29.02.20;20:15:00;1;270;14533;0;2;0;10532;0;0;0;0;3;0;7235;0;0;0;0;4;0;10508;0;0;0;0;5;0;24310;2;0;0;0;0;0;6;0;18341;2;0;0;0;0;0;7;0;16742;0;0;0;0;8;0;16246;0;0;0;0;9;0;8598;0;0;0;0
29.02.20;20:10:00;1;270;14510;0;2;0;10532;0;0;0;0;3;0;7235;0;0;0;0;4;0;10508;0;0;0;0;5;0;24310;2;0;0;0;0;0;6;0;18341;2;0;0;0;0;0;7;0;16742;0;0;0;0;8;0;16246;0;0;0;0;9;0;8598;0;0;0;0
29.02.20;20:05:00;1;239;14488;0;2;0;10532;0;0;0;0;3;0;7235;0;0;0;0;4;0;10508;0;0;0;0;5;0;24310;2;0;0;0;0;0;6;0;18341;2;0;0;0;0;0;7;0;16742;0;0;0;0;8;0;16246;0;0;0;0;9;0;8598;0;0;0;0
29.02.20;20:00:00;1;240;14467;0;2;0;10532;0;0;0;0;3;0;7235;0;0;0;0;4;0;10508;0;0;0;0;5;0;24310;2;0;0;0;0;0;6;0;18341;2;0;0;0;0;0;7;0;16742;0;0;0;0;8;0;16246;0;0;0;0;9;0;8598;0;0;0;0
29.02.20;19:55:00;1;289;14446;0;2;0;10532;0;0;0;0;3;0;7235;0;0;0;0;4;0;10508;0;0;0;0;5;0;24310;2;0;0;0;0;0;6;0;18341;2;0;0;0;0;0;7;0;16742;0;0;0;0;8;0;16246;0;0;0;0;9;0;8598;0;0;0;0
29.02.20;19:50:00;1;227;14425;0;2;0;10532;0;0;0;0;3;0;7235;0;0;0;0;4;0;10508;0;0;0;0;5;0;24310;2;0;0;0;0;0;6;0;18341;2;0;0;0;0;0;7;0;16742;0;0;0;0;8;0;16246;0;0;0;0;9;0;8598;0;0;0;0
29.02.20;19:45:00;1;228;14406;0;2;0;10532;0;0;0;0;3;0;7235;0;0;0;0;4;0;10508;0;0;0;0;5;0;24310;2;0;0;0;0;0;6;0;18341;2;0;0;0;0;0;7;0;16742;0;0;0;0;8;0;16246;0;0;0;0;9;0;8598;0;0;0;0
29.02.20;19:40:00;1;227;14387;0;2;0;10532;0;0;0;0;3;0;7235;0;0;0;0;4;0;10508;0;0;0;0;5;0;24310;2;0;0;0;0;0;6;0;18341;2;0;0;0;0;0;7;0;16742;0;0;0;0;8;0;16246;0;0;0;0;9;0;8598;0;0;0;0
29.02.20;19:35:00;1;226;14368;0;2;0;10532;0;0;0;0;3;0;7235;0;0;0;0;4;0;10508;0;0;0;0;5;0;24310;2;0;0;0;0;0;6;0;18341;2;0;0;0;0;0;7;0;16742;0;0;0;0;8;0;16246;0;0;0;0;9;0;8598;0;0;0;0
29.02.20;19:30:00;1;329;14348;0;2;0;10532;0;0;0;0;3;0;7235;0;0;0;0;4;0;10508;0;0;0;0;5;0;24310;2;0;0;0;0;0;6;0;18341;2;0;0;0;0;0;7;0;16742;0;0;0;0;8;0;16246;0;0;0;0;9;0;8598;0;0;0;0
29.02.20;19:25:00;1;299;14319;0;2;0;10532;0;0;0;0;3;0;7235;0;0;0;0;4;0;10508;0;0;0;0;5;0;24310;2;0;0;0;0;0;6;0;18341;2;0;0;0;0;0;7;0;16742;0;0;0;0;8;0;16246;0;0;0;0;9;0;8598;0;0;0;0
29.02.20;19:20:00;1;259;14294;0;2;0;10532;0;0;0;0;3;0;7235;0;0;0;0;4;0;10508;0;0;0;0;5;0;24310;2;0;0;0;0;0;6;0;18341;2;0;0;0;0;0;7;0;16742;0;0;0;0;8;0;16246;0;0;0;0;9;0;8598;0;0;0;0
29.02.20;19:15:00;1;232;14272;0;2;0;10532;0;0;0;0;3;0;7235;0;0;0;0;4;0;10508;0;0;0;0;5;0;24310;2;0;0;0;0;0;6;0;18341;2;0;0;0;0;0;7;0;16742;0;0;0;0;8;0;16246;0;0;0;0;9;0;8598;0;0;0;0
29.02.20;19:10:00;1;215;14252;0;2;0;10532;0;0;0;0;3;0;7235;0;0;0;0;4;0;10508;0;0;0;0;5;0;24310;2;0;0;0;0;0;6;0;18341;2;0;0;0;0;0;7;0;16742;0;0;0;0;8;0;16246;0;0;0;0;9;0;8598;0;0;0;0
29.02.20;19:05:00;1;269;14234;0;2;0;10532;0;0;0;0;3;0;7235;0;0;0;0;4;0;10508;0;0;0;0;5;0;24310;2;0;0;0;0;0;6;0;18341;2;0;0;0;0;0;7;0;16742;0;0;0;0;8;0;16246;0;0;0;0;9;0;8598;0;0;0;0
29.02.20;19:00:00;1;297;14212;0;2;0;10532;0;0;0;0;3;0;7235;0;0;0;0;4;0;10508;0;0;0;0;5;0;24310;2;0;0;0;0;0;6;0;18341;2;0;0;0;0;0;7;0;16742;0;0;0;0;8;0;16246;0;0;0;0;9;0;8598;0;0;0;0
29.02.20;18:55:00;1;302;14186;0;2;0;10532;0;0;0;0;3;0;7235;0;0;0;0;4;0;10508;0;0;0;0;5;0;24310;2;0;0;0;0;0;6;0;18341;2;0;0;0;0;0;7;0;16742;0;0;0;0;8;0;16246;0;0;0;0;9;0;8598;0;0;0;0
29.02.20;18:50:00;1;281;14161;0;2;0;10532;0;0;0;0;3;0;7235;0;0;0;0;4;0;10508;0;0;0;0;5;0;24310;2;0;0;0;0;0;6;0;18341;2;0;0;0;0;0;7;0;16742;0;0;0;0;8;0;16246;0;0;0;0;9;0;8598;0;0;0;0
29.02.20;18:45:00;1;286;14137;0;2;0;10532;0;0;0;0;3;0;7235;0;0;0;0;4;0;10508;0;0;0;0;5;0;24310;2;0;0;0;0;0;6;0;18341;2;0;0;0;0;0;7;0;16742;0;0;0;0;8;0;16246;0;0;0;0;9;0;8598;0;0;0;0
29.02.20;18:40:00;1;365;14113;0;2;0;10532;0;0;0;0;3;0;7235;0;0;0;0;4;0;10508;0;0;0;0;5;0;24310;2;0;0;0;0;0;6;0;18341;2;0;0;0;0;0;7;0;16742;0;0;0;0;8;0;16246;0;0;0;0;9;0;8598;0;0;0;0
29.02.20;18:35:00;1;396;14082;0;2;0;10532;0;0;0;0;3;0;7235;0;0;0;0;4;0;10508;0;0;0;0;5;0;24310;2;0;0;0;0;0;6;0;18341;2;0;0;0;0;0;7;0;16742;0;0;0;0;8;0;16246;0;0;0;0;9;0;8598;0;0;0;0
29.02.20;18:30:00;1;443;14049;0;2;0;10532;0;0;0;0;3;0;7235;0;0;0;0;4;0;10508;0;0;0;0;5;0;24310;2;0;0;0;0;0;6;0;18341;2;0;0;0;0;0;7;0;16742;0;0;0;0;8;0;16246;0;0;0;0;9;0;8598;0;0;0;0
29.02.20;18:25:00;1;443;14010;0;2;0;10532;0;0;0;0;3;0;7235;0;0;0;0;4;0;10508;0;0;0;0;5;0;24310;2;0;0;0;0;0;6;0;18341;2;0;0;0;0;0;7;0;16742;0;0;0;0;8;0;16246;0;0;0;0;9;0;8598;0;0;0;0
29.02.20;18:20:00;1;450;13973;0;2;0;10532;0;0;0;0;3;0;7235;0;0;0;0;4;0;10508;0;0;0;0;5;0;24310;2;0;0;0;0;0;6;0;18341;2;0;0;0;0;0;7;0;16742;0;0;0;0;8;0;16246;0;0;0;0;9;0;8598;0;0;0;0
29.02.20;18:15:00;1;417;13936;0;2;0;10532;0;0;0;0;3;0;7235;0;0;0;0;4;0;10508;0;0;0;0;5;0;24310;2;0;0;0;0;0;6;0;18341;2;0;0;0;0;0;7;0;16742;0;0;0;0;8;0;16246;0;0;0;0;9;0;8598;0;0;0;0
29.02.20;18:10:00;1;829;13900;0;2;0;10532;0;0;0;0;3;0;7235;0;0;0;0;4;0;10508;0;0;0;0;5;0;24310;2;0;0;0;0;0;6;0;18341;2;0;0;0;0;0;7;0;16742;0;0;0;0;8;0;16246;0;0;0;0;9;0;8598;0;0;0;0
29.02.20;18:05:00;1;1150;13809;0;2;0;10532;0;0;0;0;3;0;7235;0;0;0;0;4;0;10508;0;0;0;0;5;0;24310;2;0;0;0;0;0;6;0;18341;2;0;0;0;0;0;7;0;16742;0;0;0;0;8;0;16246;0;0;0;0;9;0;8598;0;0;0;0
29.02.20;18:00:00;1;650;13717;0;2;0;10532;0;0;0;0;3;0;7235;0;0;42;2;4;0;10508;0;0;0;0;5;0;24310;2;0;0;0;0;0;6;0;18341;2;0;0;0;0;0;7;0;16742;0;0;0;0;8;0;16246;0;0;0;0;9;0;8598;0;0;0;0
29.02.20;17:55:00;1;712;13660;0;2;0;10532;0;0;189;7;3;0;7235;6;0;290;14;4;0;10508;0;0;9;1;5;0;24310;2;0;0;0;0;0;6;0;18341;2;0;0;0;0;0;7;0;16742;0;0;0;0;8;0;16246;0;0;0;0;9;0;8598;0;0;0;0
29.02.20;17:50:00;1;680;13601;0;2;0;10532;6;0;299;11;3;0;7235;6;0;343;14;4;0;10508;2;0;81;13;5;0;24310;2;0;0;57;56;3;6;0;18341;1;1;0;29;39;4;7;0;16742;0;0;0;0;8;0;16246;0;0;0;0;9;0;8598;0;0;0;0
29.02.20;17:45:00;1;586;13545;0;2;0;10532;6;0;339;11;3;0;7235;6;0;418;14;4;0;10508;1;0;124;14;5;0;24310;23;0;0;361;359;23;6;0;18341;23;7;2;180;464;21;7;0;16742;0;0;130;8;8;0;16246;0;0;179;10;9;0;8598;6;0;280;11
29.02.20;17:40:00;1;678;13495;0;2;0;10532;6;0;371;12;3;0;7235;3;2;447;14;4;0;10508;1;0;174;14;5;0;24310;26;0;0;410;577;23;6;0;18341;23;8;1;181;542;22;7;0;16742;6;0;339;16;8;0;16246;6;0;343;16;9;0;8598;6;0;362;12
29.02.20;17:35:00;1;661;13438;0;2;0;10532;6;0;405;12;3;0;7235;6;10;469;14;4;1;10508;1;1;200;15;5;65;24310;1;15;18;375;596;24;6;25;18341;1;9;15;516;493;22;7;1;16742;6;1;272;11;8;0;16246;6;1;355;13;9;0;8598;6;0;320;8
29.02.20;17:30:00;1;661;13383;0;2;0;10532;6;0;413;12;3;1;7235;6;6;498;15;4;0;10508;3;0;233;15;5;90;24304;4;27;24;366;580;24;6;53;18339;4;23;33;494;462;22;7;0;16742;0;4;259;10;8;0;16246;6;0;286;9;9;4;8598;0;7;364;9
29.02.20;17:25:00;1;657;13326;0;2;0;10532;6;0;404;12;3;2;7235;6;5;479;15;4;0;10508;3;0;216;15;5;15;24297;4;4;3;416;660;24;6;0;18336;8;2;6;514;578;22;7;0;16742;6;2;432;17;8;1;16246;6;2;435;16;9;0;8597;6;2;477;12
29.02.20;17:20:00;1;606;13272;0;2;0;10532;6;0;402;13;3;2;7235;6;5;462;15;4;0;10508;3;0;209;15;5;7;24295;1;0;2;423;673;24;6;0;18336;23;6;5;384;576;23;7;0;16742;6;2;421;17;8;0;16246;6;1;426;17;9;0;8597;6;2;458;12
29.02.20;17:15:00;1;716;13221;0;2;0;10532;6;0;407;13;3;0;7235;6;0;519;15;4;0;10508;3;0;206;16;5;74;24294;4;10;14;383;610;25;6;29;18336;1;14;24;510;487;23;7;0;16742;4;2;423;17;8;0;16246;6;0;360;13;9;0;8597;6;2;475;13
29.02.20;17:10:00;1;989;13157;0;2;2;10532;6;9;404;13;3;3;7235;4;6;502;15;4;0;10508;3;0;200;16;5;102;24288;4;32;28;383;610;25;6;63;18334;4;35;42;452;425;24;7;1;16742;3;7;426;18;8;1;16246;3;2;454;17;9;0;8597;6;0;504;13
29.02.20;17:05:00;1;1001;13075;0;2;41;10532;6;68;367;14;3;8;7234;3;18;497;16;4;28;10508;3;29;199;16;5;160;24279;4;61;56;383;610;25;6;101;18328;4;49;57;452;425;24;7;12;16741;6;21;448;18;8;13;16246;6;22;452;18;9;3;8597;3;11;506;13
29.02.20;17:00:00;1;1058;12990;0;2;66;10528;4;99;368;14;3;6;7234;6;13;526;16;4;32;10506;3;33;198;16;5;193;24265;4;85;83;383;610;25;6;122;18319;4;63;73;452;425;24;7;51;16740;4;74;349;18;8;49;16245;4;75;360;18;9;10;8597;6;19;504;13
29.02.20;16:55:00;1;1122;12899;0;2;53;10523;4;88;371;14;3;6;7233;6;11;523;16;4;21;10503;3;22;198;16;5;160;24249;4;61;54;383;610;25;6;101;18309;4;56;68;452;425;24;7;10;16736;4;14;373;14;8;10;16241;4;15;475;18;9;3;8596;6;8;530;14
29.02.20;16:50:00;1;1064;12805;0;2;56;10518;4;88;366;15;3;4;7233;6;11;523;16;4;19;10501;3;20;198;17;5;156;24236;4;56;45;383;610;26;6;99;18301;4;44;54;452;425;24;7;3;16735;4;10;474;19;8;5;16240;4;10;375;14;9;1;8596;6;6;414;11
29.02.20;16:45:00;1;1039;12716;0;2;69;10514;4;102;358;15;3;5;7232;6;11;533;17;4;34;10499;3;35;198;17;5;181;24222;4;77;55;383;610;26;6;113;18292;4;50;57;452;425;24;7;20;16734;0;36;176;9;8;38;16239;4;72;356;19;9;2;8596;6;7;535;14
29.02.20;16:40:00;1;1036;12629;0;2;60;10508;4;93;374;15;3;6;7232;4;12;522;17;4;28;10496;3;29;198;17;5;181;24207;4;75;65;383;610;26;6;117;18283;4;63;74;452;425;24;7;44;16733;4;73;351;19;8;41;16236;4;75;358;19;9;0;8596;6;0;449;12
29.02.20;16:35:00;1;1005;12542;0;2;50;10503;4;83;367;16;3;10;7231;3;22;493;17;4;17;10494;3;18;198;18;5;175;24192;4;72;57;383;610;26;6;110;18273;4;52;63;452;425;25;7;31;16729;4;63;356;19;8;23;16231;0;35;215;11;9;7;8596;3;16;502;15
29.02.20;16:30:00;1;981;12459;0;2;83;10499;4;116;355;16;3;19;7230;6;36;515;17;4;45;10493;3;46;197;18;5;235;24178;4;103;80;383;610;26;6;149;18264;4;89;93;452;425;25;7;48;16726;4;85;410;20;8;50;16229;4;88;402;19;9;7;8595;6;12;538;15
29.02.20;16:25:00;1;974;12376;0;2;140;10492;4;177;369;16;3;77;7228;4;118;467;18;4;103;10489;3;108;212;18;5;342;24157;4;163;137;383;610;26;6;214;18251;4;101;106;451;425;25;7;116;16722;4;149;429;20;8;115;16225;4;150;412;20;9;34;8594;6;48;518;16
29.02.20;16:20:00;1;899;12294;0;2;173;10480;4;212;368;17;3;101;7222;4;141;497;18;4;133;10481;5;138;224;19;5;404;24128;4;192;160;386;610;26;6;252;18233;4;138;139;452;425;25;7;159;16713;4;195;419;20;8;153;16215;4;193;432;20;9;84;8591;4;114;463;17
29.02.20;16:15:00;1;924;12218;0;2;186;10466;4;223;380;17;3;107;7214;4;148;494;19;4;142;10470;5;147;222;19;5;417;24095;4;200;167;381;609;27;6;278;18211;4;147;163;459;466;25;7;160;16699;4;199;421;21;8;168;16203;4;206;434;20;9;89;8584;4;117;469;17
29.02.20;16:10:00;1;916;12141;0;2;236;10450;4;276;374;18;3;143;7205;4;183;485;19;4;184;10458;5;192;228;19;5;526;24059;4;258;212;402;615;27;6;391;18188;4;163;176;559;549;25;7;225;16686;4;259;441;21;8;223;16189;4;261;434;20;9;115;8577;4;149;518;17
29.02.20;16:05:00;1;895;12064;0;2;317;10430;4;359;389;18;3;191;7193;4;237;491;19;4;261;10442;5;272;230;20;5;699;24014;4;351;286;403;640;27;6;518;18154;4;246;261;579;549;25;7;307;16667;4;349;457;21;8;301;16170;4;343;464;21;9;167;8567;4;200;501;18
29.02.20;16:00:00;1;881;11989;0;2;411;10404;4;461;395;19;3;252;7177;4;299;482;20;4;352;10421;5;366;232;20;5;859;23955;4;438;362;408;660;27;6;653;18110;4;338;349;578;560;25;7;419;16642;4;465;462;22;8;421;16145;4;468;464;21;9;227;8553;4;268;510;18
29.02.20;15:55:00;1;879;11915;0;2;512;10370;4;563;390;20;3;317;7156;4;367;501;20;4;443;10392;5;461;237;21;5;1045;23881;4;527;437;412;673;27;6;783;18055;4;394;400;587;563;25;7;541;16607;4;592;463;22;8;450;16110;4;494;394;18;9;290;8534;4;335;523;19
29.02.20;15:50:00;1;854;11842;0;2;669;10328;4;727;400;20;3;420;7130;4;474;507;20;4;584;10355;5;608;241;21;5;1314;23793;4;683;558;420;682;28;6;985;17989;4;518;528;588;571;25;7;726;16562;4;770;476;22;8;721;16066;4;768;481;22;9;385;8510;4;430;523;19
29.02.20;15:45:00;1;456;11777;0;2;770;10272;4;834;403;21;3;482;7095;4;537;506;21;4;680;10306;5;709;241;21;5;1527;23682;4;781;645;430;702;28;6;1138;17906;4;600;595;595;568;26;7;741;16489;0;780;400;19;8;862;16006;4;913;477;22;9;459;8478;4;511;528;20
29.02.20;15:40:00;1;436;11740;0;2;851;10208;4;919;406;22;3;542;7055;4;600;518;21;4;752;10250;5;784;241;22;5;1686;23554;4;878;723;425;691;28;6;1278;17809;4;649;653;593;568;26;7;1004;16430;4;1064;487;23;8;1005;15933;4;1063;476;22;9;438;8440;4;483;416;16
29.02.20;15:35:00;1;439;11704;0;2;820;10136;4;884;404;22;3;515;7009;4;572;506;21;4;705;10186;5;734;243;22;5;1573;23413;4;811;670;430;692;28;6;1184;17703;4;599;598;594;571;26;7;318;16346;4;338;161;7;8;947;15849;4;1006;484;23;9;250;8379;0;276;258;10
29.02.20;15:30:00;1;490;11667;0;2;938;10068;4;1005;403;23;3;588;6966;4;650;517;22;4;798;10128;5;831;240;23;5;1690;23283;4;874;714;429;682;29;6;1274;17605;4;667;669;593;568;26;7;1028;16265;4;1105;479;24;8;1027;15770;4;1097;474;23;9;555;8352;4;612;526;21
29.02.20;15:25:00;1;509;11626;0;2;1558;9990;4;1652;405;24;3;841;6917;4;916;555;22;4;1253;10061;5;1305;243;24;5;2478;23140;4;1330;1077;430;699;29;6;1865;17497;4;963;965;597;578;26;7;1938;16180;4;2038;496;24;8;1917;15685;4;2020;488;23;9;967;8306;4;1061;551;22
29.02.20;15:20:00;1;703;11585;0;2;1959;9862;4;2071;410;25;3;1058;6847;4;1139;548;22;4;1568;9958;5;1634;248;24;5;3119;22920;4;1708;1346;433;716;29;6;2508;17333;4;1304;1269;614;585;26;7;2604;16021;4;2730;491;24;8;2502;15527;4;2625;485;23;9;1072;8226;4;1144;434;17
29.02.20;15:15:00;1;631;11524;0;2;1470;9701;4;1557;398;25;3;866;6761;4;934;489;22;4;1268;9831;5;1321;242;24;5;2514;22653;4;1332;1092;431;697;29;6;1820;17132;4;930;915;601;580;26;7;1716;15811;4;1796;477;24;8;1701;15326;4;1789;496;24;9;948;8119;4;1019;541;22
29.02.20;15:10:00;1;429;11468;0;2;2425;9580;4;2559;425;26;3;1306;6689;4;1390;476;23;4;1966;9726;5;2048;245;24;5;3761;22445;4;2042;1644;434;712;29;6;2745;16976;4;1432;1398;607;587;26;7;2919;15667;4;3068;506;24;8;2978;15182;4;3121;487;24;9;1570;8039;4;1669;530;23
29.02.20;15:05:00;1;455;11432;0;2;3314;9375;4;3486;419;25;3;1567;6580;4;1665;528;23;4;2741;9562;5;2855;248;23;5;5383;22118;4;2974;2372;436;711;28;6;3984;16733;4;2077;2013;609;585;26;7;2696;15437;4;2833;323;16;8;3794;14950;4;3985;484;23;9;1977;7918;4;2099;547;22
29.02.20;15:00:00;1;584;11393;0;2;2299;9099;4;2415;392;24;3;1356;6449;4;1451;555;22;4;2011;9334;5;2095;248;23;5;3998;21690;4;2186;1746;434;714;28;6;3054;16407;4;1584;1528;614;591;26;7;3008;15096;4;3158;487;23;8;2963;14643;4;3107;481;23;9;1646;7758;4;1744;529;22
29.02.20;14:55:00;1;1066;11342;0;2;1954;8902;4;2059;411;23;3;1153;6335;4;1237;525;22;4;1686;9164;5;1756;248;22;5;3369;21365;4;1836;1463;437;713;29;6;2589;16161;4;1330;1291;610;575;26;7;2367;14844;4;2483;497;24;8;2368;14392;4;2487;493;23;9;1316;7620;4;1404;534;21
29.02.20;14:50:00;1;1006;11255;0;2;716;8738;4;775;397;22;3;443;6239;4;494;484;22;4;609;9024;5;635;236;23;5;1289;21087;4;658;549;420;668;29;6;1002;15949;4;530;520;592;554;26;7;938;14648;4;997;471;24;8;946;14192;4;1007;470;24;9;527;7508;4;580;521;21
29.02.20;14:45:00;1;1132;11170;0;2;479;8678;4;533;395;23;3;296;6201;4;345;493;22;4;413;8972;5;430;232;23;5;1066;20989;4;539;448;416;664;29;6;799;15873;4;397;414;578;557;26;7;519;14569;4;572;471;24;8;523;14113;4;565;458;24;9;269;7464;4;313;516;21
29.02.20;14:40:00;1;1358;11075;0;2;747;8638;4;810;403;25;3;468;6177;4;522;510;23;4;676;8938;5;704;236;24;5;1673;20898;4;877;715;418;689;30;6;1246;15805;4;637;643;589;561;27;7;801;14526;4;864;472;25;8;802;14069;4;851;474;24;9;422;7442;4;474;524;22
29.02.20;14:35:00;1;797;10962;0;2;1241;8576;4;1325;409;26;3;785;6138;4;853;515;24;4;1103;8882;5;1149;241;25;5;2468;20752;4;1325;1068;426;701;30;6;1879;15696;4;968;948;591;569;27;7;1448;14459;4;1523;476;25;8;1409;14002;4;1488;473;25;9;753;7406;4;818;525;23
29.02.20;14:30:00;1;874;10900;0;2;1654;8474;4;1756;412;27;3;1078;6073;4;1157;512;24;4;1532;8791;5;1595;238;26;5;3273;20537;4;1769;1432;432;700;30;6;2487;15535;4;1278;1245;591;574;27;7;1953;14339;4;2060;480;26;8;1887;13886;4;1983;476;25;9;1002;7344;4;1076;522;24
29.02.20;14:25:00;1;2639;10822;0;2;2661;8333;4;2808;411;28;3;1757;5981;4;1865;520;25;4;2467;8661;5;2570;242;26;5;5056;20258;4;2769;2231;435;707;30;6;3761;15325;4;1944;1878;599;577;27;7;1949;14174;4;2048;285;15;8;2528;13726;4;2650;381;20;9;1851;7260;4;1969;537;24